Temp
21 21 21 20 21 20 20 21 21 20 21 21 21 20 21 21 20 20 20 20 21 21 20 20 20 20 20 20 20 20 20 20 20 20 21 21 20 20 20 21 21 21
21 21 21 21 21 20 20 21 21 21 21 21 21 21 21 21 20 20 20 20 20 21 21 20 20 20 21 21 20 20 20 20 20 20 20 21 21 20 20 21 21 21
21 21 21 21 21 20 20 21 21 21 21 21 21 21 20 21 20 20 20 20 20 21 21 21 21 21 21 21 21 20 21 21 20 21 21 21 21 20 20 20 20 20
21 21 21 22 22 21 21 21 21 21 21 21 21 20 20 20 20 20 20 20 20 21 21 21 21 21 21 21 21 21 21 21 21 21 21 21 21 21 20 20 20 20
22 21 22 22 22 22 21 21 21 21 20 20 21 20 20 20 20 20 20 21 20 20 20 21 21 21 21 21 21 21 21 21 21 21 21 21 21 21 21 20 20 20
21 21 21 21 21 21 21 21 21 21 20 20 21 21 20 20 20 20 20 21 21 20 20 20 20 21 21 21 21 21 21 21 21 21 21 21 21 21 21 20 20 20
21 21 21 21 21 20 20 21 21 21 21 20 20 21 21 20 20 20 20 21 21 21 20 20 20 21 21 22 22 21 21 21 21 21 21 21 21 21 21 21 20 20
20 21 21 21 21 20 20 20 20 21 20 20 20 20 21 21 20 20 20 20 21 21 21 21 20 20 21 21 22 22 21 21 21 21 21 21 21 21 21 21 20 20
20 20 21 21 21 20 20 20 20 20 20 20 20 20 20 20 20 20 20 20 20 21 21 21 20 20 20 21 21 22 22 21 21 21 21 21 21 21 21 21 21 20
20 20 20 20 20 20 20 20 20 20 20 20 20 20 20 20 20 20 20 20 20 20 20 20 20 20 20 20 21 21 22 22 21 21 21 21 21 21 21 21 21 21
19 19 19 19 19 19 19 20 20 20 20 20 20 20 20 21 20 20 20 20 20 20 20 20 20 20 20 20 20 21 21 21 21 21 21 21 21 21 21 21 22 22
19 19 19 19 20 20 20 21 21 20 20 20 21 21 21 21 21 21 21 21 21 21 21 21 20 20 20 20 20 21 21 21 21 21 21 21 21 21 21 22 22 22
19 19 20 20 20 20 21 21 21 20 20 20 20 21 21 21 21 21 21 21 21 21 21 21 21 21 21 21 21 21 21 21 21 22 22 21 21 21 21 22 22 22
19 19 20 20 20 20 21 21 21 21 20 20 20 21 22 22 21 21 21 21 21 21 21 21 21 21 22 22 21 22 22 22 22 22 22 22 22 22 22 22 22 22
19 19 20 20 20 21 22 22 22 21 21 20 20 21 21 22 22 22 22 22 22 22 21 21 21 22 22 22 22 23 23 23 23 22 22 22 22 22 22 22 22 22
19 19 20 20 20 20 21 22 22 21 21 21 21 21 21 21 22 22 22 22 22 22 22 22 22 22 22 22 23 23 23 23 23 23 23 23 23 23 23 23 23 22
19 19 20 20 20 20 20 21 21 21 21 21 21 21 21 21 21 22 22 22 22 22 22 22 22 22 22 22 22 23 23 23 23 23 23 23 23 23 23 23 23 23
19 19 19 19 19 19 19 20 21 21 21 21 21 21 21 22 22 22 22 22 22 22 21 22 22 22 22 22 22 22 22 22 23 23 23 23 23 23 23 23 23 23
18 19 19 19 19 19 19 19 19 20 20 20 21 21 21 22 22 22 22 22 22 22 21 21 21 21 21 22 22 22 22 22 22 22 22 22 22 23 23 23 23 23
18 19 19 19 19 19 19 19 18 19 20 20 21 21 21 21 22 22 22 22 22 22 22 22 21 21 21 21 21 21 22 22 22 22 22 22 22 22 22 22 23 23
18 19 18 18 19 19 19 18 18 19 20 20 20 21 21 21 21 21 22 22 22 22 22 22 22 22 21 21 21 21 21 21 22 22 22 22 22 22 22 22 22 22
17 17 17 17 18 18 18 17 17 19 20 20 20 20 20 21 21 21 21 21 21 22 22 22 22 22 22 22 22 21 21 21 21 21 22 22 22 22 22 22 22 22
16 16 16 16 17 17 17 17 17 18 19 19 20 20 20 20 20 20 21 21 21 21 21 21 21 22 22 22 22 22 22 21 21 21 21 21 22 22 22 22 22 22
17 17 16 16 17 17 17 17 17 18 18 19 19 19 20 20 20 20 20 20 20 21 21 21 21 21 21 22 22 22 22 22 22 21 21 21 21 21 21 22 22 22
17 17 17 17 17 18 17 17 17 17 17 18 18 18 19 19 20 20 19 19 20 20 20 20 21 21 22 22 22 22 22 22 22 22 22 22 22 21 21 21 21 21
17 17 18 18 18 18 18 17 17 17 17 17 17 17 18 18 19 19 18 18 18 18 19 19 21 22 22 22 22 21 21 21 21 21 21 22 22 22 21 21 21 21
Height
1589 1590 1591 1592 1593 1594 1595 1597 1598 1599 1600 1600 1601 1601 1602 1603 1603 1604 1605 1605 1606 1607 1608 1608 1609 1610 1610 1611 1611 1612 1612 1613 1613 1614 1614 1615 1615 1616 1616 1616 1617 1617
1587 1589 1590 1591 1592 1593 1594 1595 1597 1598 1599 1600 1601 1601 1602 1602 1603 1603 1604 1605 1606 1607 1607 1608 1608 1609 1610 1610 1611 1611 1612 1613 1613 1614 1614 1614 1615 1615 1616 1616 1616 1617
1586 1587 1589 1590 1591 1593 1593 1594 1596 1597 1598 1599 1600 1601 1602 1602 1603 1603 1604 1605 1605 1606 1606 1607 1608 1608 1609 1610 1610 1611 1611 1612 1613 1613 1614 1614 1614 1615 1615 1616 1616 1616
1584 1585 1587 1588 1590 1591 1593 1593 1594 1596 1597 1598 1599 1600 1601 1602 1602 1603 1603 1604 1605 1605 1606 1607 1607 1608 1609 1609 1610 1610 1611 1611 1612 1612 1613 1613 1614 1614 1614 1615 1615 1616
1581 1583 1584 1587 1588 1590 1592 1592 1594 1595 1596 1597 1598 1600 1600 1601 1602 1602 1603 1604 1604 1605 1605 1606 1607 1607 1608 1608 1609 1610 1610 1611 1611 1611 1612 1613 1613 1613 1614 1614 1615 1615
1580 1582 1583 1585 1586 1588 1590 1591 1593 1594 1595 1597 1598 1599 1600 1600 1601 1602 1602 1603 1604 1605 1605 1605 1606 1607 1607 1608 1608 1609 1609 1610 1610 1610 1611 1612 1612 1612 1613 1613 1614 1614
1578 1580 1582 1584 1585 1588 1589 1591 1592 1593 1595 1596 1597 1598 1599 1600 1601 1601 1602 1602 1603 1604 1604 1605 1606 1606 1607 1607 1608 1608 1609 1609 1610 1610 1610 1611 1611 1612 1612 1612 1613 1613
1576 1578 1580 1582 1584 1586 1588 1590 1592 1593 1595 1596 1597 1598 1598 1599 1600 1600 1601 1602 1602 1603 1604 1604 1605 1606 1606 1607 1607 1608 1608 1609 1609 1609 1610 1610 1610 1611 1611 1611 1612 1612
1574 1576 1578 1580 1583 1586 1588 1591 1593 1594 1595 1596 1597 1598 1598 1599 1599 1600 1600 1601 1601 1602 1603 1603 1604 1605 1606 1606 1606 1607 1608 1608 1609 1609 1609 1609 1610 1610 1610 1611 1611 1611
1572 1573 1576 1579 1581 1584 1586 1589 1592 1594 1596 1596 1597 1598 1598 1598 1599 1599 1600 1600 1600 1601 1602 1602 1603 1604 1605 1605 1606 1606 1607 1608 1608 1608 1609 1609 1609 1609 1610 1610 1610 1610
1568 1569 1572 1576 1579 1581 1583 1586 1588 1591 1594 1596 1597 1597 1598 1598 1598 1598 1599 1599 1599 1600 1600 1601 1602 1603 1603 1604 1605 1605 1606 1607 1607 1608 1608 1608 1609 1609 1609 1609 1609 1609
1568 1569 1572 1576 1579 1582 1584 1585 1585 1586 1588 1592 1595 1596 1596 1597 1597 1597 1597 1598 1598 1598 1599 1600 1601 1601 1602 1602 1603 1604 1604 1605 1606 1607 1608 1608 1608 1608 1608 1608 1608 1608
1568 1570 1571 1574 1577 1579 1581 1581 1583 1584 1585 1587 1591 1593 1594 1595 1595 1596 1596 1596 1596 1597 1597 1598 1599 1599 1600 1601 1601 1602 1603 1604 1604 1605 1606 1607 1607 1607 1607 1607 1607 1607
1567 1569 1570 1572 1575 1577 1579 1579 1580 1583 1584 1585 1588 1590 1592 1593 1593 1594 1594 1595 1595 1595 1595 1596 1596 1597 1598 1598 1599 1600 1601 1602 1602 1603 1604 1605 1605 1606 1606 1606 1606 1606
1566 1567 1569 1571 1573 1575 1576 1577 1578 1580 1582 1585 1586 1587 1589 1590 1591 1592 1593 1593 1593 1593 1594 1594 1594 1595 1595 1596 1597 1597 1598 1599 1600 1601 1602 1602 1603 1603 1604 1604 1604 1604
1564 1566 1567 1569 1571 1573 1574 1574 1575 1577 1579 1582 1584 1585 1587 1588 1589 1590 1590 1591 1591 1591 1592 1592 1592 1593 1593 1594 1594 1595 1595 1596 1597 1598 1599 1600 1601 1601 1601 1602 1602 1602
1563 1564 1566 1567 1569 1570 1572 1573 1573 1574 1576 1578 1581 1583 1584 1585 1586 1588 1588 1589 1589 1589 1590 1590 1590 1591 1592 1592 1593 1593 1593 1593 1594 1595 1596 1597 1598 1598 1599 1599 1600 1600
1562 1564 1564 1565 1566 1568 1570 1571 1572 1572 1574 1577 1579 1581 1582 1583 1584 1585 1586 1587 1587 1587 1588 1588 1588 1589 1589 1590 1591 1591 1592 1592 1592 1593 1593 1594 1595 1595 1596 1597 1597 1598
1562 1563 1563 1563 1563 1565 1567 1570 1571 1572 1573 1575 1576 1578 1580 1581 1582 1583 1584 1585 1585 1586 1586 1586 1587 1587 1588 1589 1589 1590 1590 1590 1591 1591 1591 1592 1593 1593 1593 1594 1594 1595
1560 1561 1561 1561 1561 1562 1565 1569 1572 1572 1572 1573 1574 1575 1577 1578 1579 1580 1581 1582 1583 1583 1584 1584 1585 1586 1587 1587 1588 1588 1588 1589 1589 1589 1589 1590 1590 1591 1591 1591 1592 1592
1559 1559 1559 1559 1560 1562 1565 1569 1571 1570 1569 1570 1571 1573 1574 1575 1576 1577 1578 1579 1580 1580 1581 1582 1583 1584 1585 1585 1586 1586 1587 1587 1587 1586 1586 1587 1587 1588 1588 1589 1589 1589
1560 1560 1560 1561 1563 1564 1566 1568 1568 1566 1566 1567 1568 1569 1571 1572 1573 1574 1575 1576 1576 1577 1578 1579 1580 1581 1582 1582 1582 1583 1584 1584 1584 1584 1584 1584 1584 1584 1585 1586 1586 1587
1561 1562 1562 1563 1565 1566 1566 1566 1564 1563 1563 1564 1565 1567 1568 1569 1570 1571 1572 1573 1574 1574 1574 1575 1576 1578 1578 1578 1578 1579 1579 1580 1579 1580 1580 1580 1580 1581 1582 1582 1583 1584
1562 1562 1562 1563 1564 1564 1564 1563 1562 1562 1562 1562 1563 1564 1565 1566 1567 1568 1569 1570 1570 1571 1571 1571 1572 1573 1573 1574 1575 1575 1575 1574 1573 1573 1574 1575 1575 1576 1578 1578 1579 1580
1561 1561 1561 1562 1562 1561 1561 1561 1560 1560 1561 1561 1562 1562 1563 1563 1563 1564 1565 1566 1566 1567 1567 1568 1568 1568 1568 1570 1570 1570 1570 1570 1570 1570 1570 1571 1571 1572 1573 1573 1574 1575
1560 1560 1560 1559 1559 1558 1558 1559 1558 1559 1559 1559 1560 1560 1561 1561 1560 1561 1562 1562 1563 1564 1564 1564 1564 1564 1565 1566 1567 1567 1567 1567 1568 1568 1569 1569 1569 1569 1568 1568 1569 1569
Wind_Speed
20 20 20 20 18 17 16 15 17 17 15 13 13 12 10 8 8 8 10 10 8 9 9 8 8 8 8 9 8 8 7 8 8 8 8 8 8 8 7 8 8 6
20 20 19 19 18 17 16 14 15 16 16 13 12 12 11 10 10 10 9 10 9 9 9 9 8 8 8 8 8 8 8 8 8 8 8 8 8 8 7 8 7 5
20 20 20 19 18 17 17 15 15 16 16 15 13 12 10 10 11 12 10 10 10 10 10 9 9 9 9 8 8 9 8 8 9 9 8 8 9 8 8 7 6 3
20 21 20 20 19 18 17 17 16 16 16 15 14 13 10 9 11 12 12 11 10 10 10 10 10 10 9 9 8 8 8 9 10 9 8 8 8 8 8 7 7 4
20 20 20 19 20 19 19 18 18 17 17 16 15 15 14 12 11 11 12 12 11 11 10 9 9 10 10 9 9 8 8 9 9 9 9 8 8 8 8 7 7 7
20 20 19 19 19 19 19 19 19 18 18 18 17 17 17 15 13 12 12 12 12 12 12 11 10 10 10 10 10 9 9 9 9 9 8 8 8 8 9 8 7 8
20 19 19 19 18 18 18 18 18 18 18 18 17 17 17 17 16 14 13 12 12 13 13 13 12 10 10 11 10 10 10 10 10 9 9 9 9 8 9 10 9 8
21 19 19 19 18 18 18 19 19 18 18 18 17 17 17 17 18 17 15 13 11 12 13 14 13 11 10 11 11 11 11 11 11 10 10 10 9 9 10 10 9 9
23 20 19 19 18 18 18 19 20 18 18 18 18 18 17 17 18 18 18 16 13 12 13 13 13 12 11 11 11 12 12 12 12 11 9 9 9 9 10 10 11 11
25 23 21 20 20 19 19 17 18 18 19 19 17 18 18 17 17 18 18 18 17 15 14 13 14 14 13 13 12 12 12 12 12 12 11 10 9 10 10 10 11 11
21 21 22 21 20 20 19 17 17 17 17 19 19 19 20 19 18 19 19 18 18 19 17 15 15 15 15 15 14 14 14 13 12 13 13 13 12 12 12 12 12 12
18 17 18 20 19 19 19 19 19 18 16 18 20 20 21 21 20 20 20 19 18 18 18 18 19 18 17 16 16 16 16 15 14 14 14 15 15 14 14 14 14 13
20 19 19 20 19 20 21 21 22 21 18 17 20 22 20 21 22 21 20 20 19 18 18 18 20 20 20 19 19 18 17 16 16 15 14 15 16 17 16 16 15 14
18 19 20 19 18 19 20 22 22 22 20 17 18 23 22 19 21 23 21 20 19 19 19 19 19 20 21 22 22 21 19 18 17 16 16 15 16 17 17 17 16 15
14 16 16 17 19 19 20 21 22 22 22 18 15 21 25 21 19 22 22 21 20 19 19 19 19 19 20 21 22 22 21 20 19 18 18 18 18 17 17 17 17 16
11 13 13 13 14 15 17 21 21 20 23 23 16 18 26 26 22 23 23 22 22 21 20 19 19 19 19 20 21 21 21 20 20 20 20 20 20 20 20 19 18 17
7 9 9 8 8 9 12 17 20 20 22 26 23 19 23 27 25 24 24 24 23 23 22 22 20 19 19 19 20 21 21 21 21 21 21 22 23 23 22 21 20 19
7 8 7 7 8 9 9 12 18 21 22 25 26 23 22 24 25 24 25 25 22 21 22 24 24 22 20 19 18 19 20 22 22 21 21 23 23 24 24 23 22 22
10 10 10 10 11 10 10 11 15 20 23 25 26 26 24 24 25 24 25 26 24 22 21 23 23 23 23 22 21 20 19 20 21 22 22 22 23 24 25 25 25 24
12 12 11 11 11 11 12 13 14 18 22 24 26 27 26 26 26 26 25 26 27 26 25 24 22 21 19 19 21 22 23 23 23 23 23 23 23 24 24 25 26 26
9 12 12 10 9 12 14 15 16 17 19 21 23 25 26 27 28 28 28 27 27 28 29 29 28 25 22 20 19 20 22 25 27 29 28 27 26 25 25 25 26 27
2 6 9 9 10 13 15 16 17 17 18 20 21 22 23 25 26 28 29 29 29 29 30 31 31 31 29 28 26 24 22 22 25 28 31 32 31 30 28 28 27 27
3 1 3 7 9 10 12 16 16 16 18 19 20 21 22 22 23 25 27 28 29 30 30 31 31 30 31 32 32 32 30 27 25 25 27 30 32 32 31 31 30 29
6 5 3 1 4 4 6 11 14 15 16 16 17 18 20 21 21 22 24 25 27 28 29 29 28 29 29 30 31 33 35 36 35 33 31 29 29 30 31 31 32 32
7 6 5 4 4 4 4 6 8 11 13 14 15 15 17 19 20 20 21 21 22 23 24 25 27 28 28 28 28 29 32 35 38 39 38 35 33 33 32 32 33 34
7 6 6 6 6 6 6 6 6 6 9 11 12 13 13 15 17 19 19 19 19 18 19 23 28 30 29 27 25 26 28 31 33 35 35 36 35 35 35 34 35 36
Wind_Direction
210 209 202 204 205 206 212 208 204 210 212 208 205 207 205 186 195 206 188 191 200 189 188 187 190 197 193 194 198 190 191 196 189 186 187 179 177 185 178 166 163 178
209 214 212 210 207 205 212 214 209 210 214 215 209 210 214 201 198 208 198 194 205 198 190 189 189 193 192 188 192 194 196 196 191 187 186 181 177 176 174 169 167 187
212 214 215 215 214 211 213 217 215 213 214 216 213 210 217 213 203 208 209 203 207 208 198 193 194 195 193 188 188 193 197 197 194 191 185 183 182 174 166 166 164 180
215 216 216 216 216 216 217 219 219 215 213 215 213 210 217 225 213 209 215 211 207 213 209 198 200 200 196 194 195 195 193 192 193 196 192 187 186 182 179 175 167 184
216 216 217 217 217 219 220 223 224 218 214 214 211 207 211 223 222 218 222 219 211 216 219 211 207 206 204 202 201 200 197 194 194 197 198 194 188 187 191 190 180 193
217 217 219 219 218 219 221 225 228 223 218 217 215 210 207 211 225 232 229 226 220 217 219 224 223 215 213 212 207 206 207 205 201 197 197 200 198 194 192 190 192 205
219 220 219 220 219 218 221 228 232 228 222 219 218 218 212 205 216 231 234 231 226 221 221 228 232 226 223 222 215 213 212 211 210 203 198 199 201 206 203 194 196 212
217 219 218 219 217 214 217 229 237 233 228 225 219 221 222 213 212 221 231 233 230 227 225 228 234 236 234 230 224 220 217 216 219 216 210 208 206 212 216 208 204 213
213 217 220 221 219 214 215 228 240 237 230 229 225 224 229 226 219 218 225 230 233 235 229 224 231 238 243 246 240 232 226 222 229 230 224 225 225 224 223 220 219 224
213 214 221 224 221 216 213 220 238 243 239 236 230 227 232 233 229 225 226 228 228 233 234 226 227 233 241 252 254 249 238 228 231 236 235 240 245 243 240 233 231 235
222 217 219 224 224 222 220 214 217 229 243 245 236 229 231 234 234 231 232 232 228 229 231 227 227 231 235 246 256 258 252 242 237 238 238 242 247 249 247 242 239 239
232 224 219 224 229 232 231 225 219 216 224 239 242 236 230 231 236 237 235 237 236 233 232 228 228 230 233 240 250 254 254 251 248 245 242 243 246 251 252 250 248 245
232 227 220 221 229 233 230 229 229 223 216 221 234 240 236 229 232 240 242 241 241 240 238 234 232 232 233 236 243 251 253 252 252 254 253 249 248 251 256 258 258 255
229 227 223 221 227 232 229 227 227 231 229 219 221 233 241 236 230 235 244 246 245 245 244 243 241 239 236 235 239 247 252 253 254 256 259 259 256 255 257 260 260 258
223 224 224 225 229 231 229 225 226 232 231 223 221 228 232 232 228 230 239 246 248 249 249 249 250 249 245 240 239 243 248 251 252 254 258 262 263 263 263 263 261 257
210 215 218 221 226 230 229 226 227 230 221 217 227 229 221 221 222 223 233 244 248 250 251 252 255 257 257 252 246 244 245 246 248 250 254 258 262 265 267 267 265 262
204 209 212 213 222 233 234 227 225 226 217 214 224 228 218 217 219 219 225 237 245 249 251 254 259 264 267 266 259 253 249 247 246 246 247 250 255 260 263 265 265 264
227 222 222 223 226 232 237 235 231 228 222 219 226 232 225 219 219 221 222 227 235 241 243 248 255 262 270 274 273 266 260 256 255 253 250 248 249 252 257 261 262 263
242 241 244 242 236 229 229 240 241 235 231 229 229 233 233 227 224 226 226 225 227 230 232 237 242 249 257 266 273 276 274 269 266 265 263 259 256 254 254 256 259 261
252 249 248 248 245 238 234 240 245 239 234 232 230 230 231 229 228 228 228 226 227 229 231 233 233 235 242 254 264 270 272 271 270 270 270 269 267 265 261 259 260 260
263 258 256 258 256 250 244 243 243 237 232 232 232 231 230 230 230 231 230 229 230 232 235 237 238 237 238 245 255 263 267 269 267 267 267 269 270 270 269 268 267 266
277 264 258 254 250 246 241 236 234 231 229 231 233 233 233 234 235 235 234 234 235 236 238 241 241 241 243 247 252 256 262 267 268 267 266 266 268 268 269 270 270 269
79 87 220 230 238 245 242 235 232 228 227 230 233 235 237 238 240 241 241 242 241 240 241 244 244 244 245 247 249 252 255 259 264 266 265 265 266 267 267 267 267 266
62 62 63 244 260 281 263 247 241 237 234 236 238 238 239 241 243 244 246 247 247 246 246 247 247 246 246 248 249 249 249 250 252 254 256 258 260 263 265 266 266 265
37 38 36 13 334 324 311 286 269 257 250 249 249 248 245 242 243 246 248 251 253 252 251 251 249 246 246 249 252 252 250 249 250 252 255 257 257 257 259 262 265 265
6 4 3 357 342 330 328 333 327 300 276 267 267 268 262 253 250 253 256 260 261 260 258 253 250 249 250 252 257 260 258 256 256 258 260 262 262 260 258 258 260 263